Showing default

EXPLORER 31 (ISIS-X), 1806

Orbit data source: Space-Track

EXPLORER 31 (ISIS-X), 1806 is a payload satellite owned by GSFC (US) in LEO that was launched on Mon, 29 Nov 1965 UTC via a THOR SLV-2 AGENA B launch vehicle from the Air Force Western Test Range (AFWTR). Payloads include a variety of satellites, spacecraft, and rockets equipped with specific instruments for various scientific and technological missions. These include communications satellites like Starlink; space stations such as the ISS; scientific satellites like the Hubble; Earth observation satellites from companies like Planet Labs, Umbra, and HawkEye 360; GPS; miniature CubeSats for education and research; and military/defense satellites.

Loading next visibility...
EXPLORER 31 (ISIS-X) details
Identifier
1806, 1965-098B
Orbit
LEO
Last TLE update1 day ago
Origin
Flag of USGSFC (US)
ManufacturerAPL
MissionCivil Science
Bus & MotorDME, Unknown motor
Mass98 kg wet, 98 kg dry
Launch date (UTC)
1965-11-29 (59 years ago)
Launch vehicle
THOR SLV-2 AGENA B
Launch site
Air Force Western Test Range (AFWTR)
Object type
Payload
Rocket body
Debris
Shape & HBROct Cyl, 0.9 m
Radar Cross Section0.700 m², Medium (>0.1 m² and < 1m²)

Expand to show TLE details & history

TLE from 1 day ago
0 EXPLORER 31 (ISIS-X)
1 01806U 65098B   25022.46744285  .00000872  00000-0  29509-3 0  9999
2 01806  79.7745  50.8587 1427989  55.1065 317.5996 12.07554958587029
Epoch: 2025-01-22T11:13Z
Definitive object data (Epoch: 2025-01-22T11:13:07.062Z)
Latitude-0.00001°
Longitude120.52038°
Altitude890.74 km
Speed7.749 km/s
True Right ascension03h 23m 26s
True Declination0° 00' 00"
Sunlit
Object was in daylight at TLE epoch
Visualization TLE readout
Latitude66.8334°
Longitude-85.17472°
Altitude942.275 km
Speed7.71 km/s
Apparent Right ascension04h 06m 15s
Apparent Declination49° 19' 40"
Sunlit
Object is in daylight
Visualization observer readout
Local Sidereal Time14:44:22
Azimuth346.822° N
Elevation1.052°
Doppler factor1
Orbital elements
Apogee altitude2,790.3 km
Perigee altitude499.009 km
Semi-major axis8,022.792 km
Eccentricity0.1427989
Inclination79.7745°
RAAN50.8587°
Arg. of periapsis55.1065°
True anomaly305.00594°
Mean anomaly317.5996°
Eccentric anomaly311.46887°
Mean motion3.02033 °/min
BSTAR0.00029509
Orbital period119.19 mins
Loading maneuver chart data...
Loading historical data...
Loading historical data...
Loading historical data...
Loading historical data...
Loading historical data...
Loading historical data...
Loading historical data...

EXPLORER 31 (ISIS-X) Visibility forecast

Observer location: undefined°, undefined

Span
Click to sort rows by Start time (UTC) header in descending order
Start Az.
Max El. time (UTC)
Max El. Az.
Max El.
End time (UTC)
End Az.
17 mins2025-01-23 13:34:17.143Z346.247° N2025-01-23 13:40:17.143Z305.219° NW44.463°2025-01-23 13:51:17.143Z175.354° S
6 mins2025-01-23 15:39:17.143Z285.466° WNW2025-01-23 15:41:17.143Z270.462° WNW12.946°2025-01-23 15:45:17.143Z245.91° WSW
5 mins2025-01-24 03:07:17.143Z225.975° WSW2025-01-24 03:09:17.143Z268.471° W28.776°2025-01-24 03:12:17.143Z346.951° N
9 mins2025-01-24 11:28:17.143Z39.132° NE2025-01-24 11:31:17.143Z66.521° ENE16.804°2025-01-24 11:37:17.143Z107.419° ESE
5 mins2025-01-24 13:27:17.143Z345.958° N2025-01-24 13:32:17.143Z266.287° W44.813°2025-01-24 13:32:17.143Z266.287° W
|